Aeroporto :
LOGIN :

Iscrizione | Disclaimer

   EN    FR    IT 

 










Sommario :    VFR   VFR Marginale   IFR   IFR Intensivo   IFR Molto Intensivo
Visibilità : 
Base nubi : 
>= 8 km
>= 3000ft
5 / 8 km
1000 / 3000 ft
1500m / 5 km
500 / 1000 ft
800 / 1500m
200 / 500 ft
< 800m
< 200 ft
Simboli :   Temporali  Nebbia  Neve Forte  Precipitazioni Forti  Vento > 20 kt
SIGMETs :   Varie  Temporali  Ghiacco  Turbolenza  Onda orograficha  Ceneri Vulcaniche






- Altitudine del aeroporto : 19 ft
- Codice IATA : LCY


EGLC - London City

ULTIMO METAR :
  • 290920Z AUTO 05012G23KT 340V100 9999 FEW045 07/M04 Q1037

METARs OBSOLETI :
  • 290850Z AUTO VRB12G23KT 9999 SCT044 06/M04 Q1037
  • 290820Z AUTO VRB13G23KT 9999 FEW044 06/M05 Q1037
  • 290750Z AUTO 01012G25KT 340V120 9999 SCT041 06/M04 Q1036
  • 290720Z AUTO VRB09KT 9999 FEW041 05/M03 Q1036
  • 290650Z AUTO 02008KT 320V110 9999 FEW047 05/M03 Q1036

Previsioni scadute.
ATIS : +44 20 7646 0224



MetMap, La meteo Aeronautica in un colpo d'occhio ! - Copyright ORBIFLY Dicembre 2007 - Disclaimer

ORBIFLY MET'MAP TEAM :

Programmazione e sviluppo : Alexandra Zaïnal
Concezione : Baudouin d'Aumeries
Aiuto per la programmazione : Marc-Olivier Méhu
Supporto tecnico e logistico : Manuel Goepfert
Aiuto per la traduzione : Arnaldo La Scala

Contatto : metmap@orbifly.com




FONTI E CREDITI :

   NOAA